Location: Muenchen
(48.1800°N, 11.5800°E)
Time: 21:12:44
(UTC+02:00)

Iridium 36 - Visible Passes

Search period start: 27 July 2016 00:00
Search period end: 06 August 2016 00:00
Orbit: 771 x 775 km, 86.4° (Epoch: 27 July)

Date Brightness Start Highest point End Pass type
(mag) Time Alt. Az. Time Alt. Az. Time Alt. Az.
27 Jul 7.6 00:08:51 10° NNW 00:12:33 20° WNW 00:16:14 10° WSW visible
27 Jul 6.4 21:52:40 10° NNE 21:57:24 34° ENE 22:01:41 12° SE visible
27 Jul 6.9 23:33:21 10° NNW 23:38:01 34° W 23:42:04 13° SW visible
28 Jul 5.9 22:58:12 10° N 23:03:21 61° W 23:07:29 16° SSW visible
29 Jul 5.5 22:23:18 10° N 22:28:33 77° E 22:32:55 15° S visible
30 Jul 8.0 00:05:30 10° NW 00:08:29 16° WNW 00:11:29 10° WSW visible
30 Jul 6.0 21:48:38 10° N 21:53:37 43° E 21:58:22 11° SSE visible
30 Jul 7.3 23:29:42 10° NNW 23:34:00 27° W 23:38:18 10° SW visible
31 Jul 6.4 22:54:25 10° NNW 22:59:24 47° W 23:04:14 11° SSW visible
01 Aug 5.6 22:19:25 10° N 22:24:40 83° W 22:29:42 11° S visible
02 Aug 8.1 00:02:28 10° NW 00:04:24 12° WNW 00:06:20 10° W visible
02 Aug 5.7 21:44:39 10° N 21:49:47 56° E 21:54:52 10° SSE visible
02 Aug 7.7 23:26:08 10° NNW 23:29:59 21° WNW 23:33:49 10° SW visible
03 Aug 6.9 22:50:41 10° NNW 22:55:26 36° W 23:00:09 10° SSW visible
04 Aug 5.9 22:15:35 10° N 22:20:45 65° W 22:25:53 10° S visible
05 Aug 5.5 21:40:42 10° N 21:45:55 72° E 21:51:07 10° S visible
05 Aug 8.0 23:22:43 10° NW 23:25:55 17° WNW 23:29:07 10° WSW visible
